Wind_Speed
40 41 39 40 41 38 38 33 31 34 27 27 31 32 31 37 39 41 40 35 37 37 34 34 34 32 32 30 29 29 27 25 25 27 30 26 27 26
37 41 41 41 41 39 38 37 36 32 35 33 29 30 29 31 32 34 45 42 41 39 39 37 37 35 35 33 32 32 31 30 30 33 36 35 33 31
39 38 40 43 42 39 38 39 36 36 37 42 30 30 32 31 35 36 42 42 46 41 42 38 41 39 38 37 36 35 32 34 35 37 34 36 36 41
42 42 42 44 43 41 41 36 36 36 37 40 32 31 33 35 30 34 41 46 45 44 43 42 44 42 42 41 40 38 36 34 41 37 44 37 38 40
39 39 42 45 45 45 44 38 35 35 36 32 32 31 35 34 36 39 34 47 46 47 45 43 45 45 45 43 43 41 42 37 37 43 48 46 43 42
36 34 39 48 45 46 42 37 36 35 35 32 37 32 36 31 34 33 40 41 51 52 50 44 45 43 44 45 42 44 44 43 39 50 48 46 47 43
37 40 34 39 42 45 43 40 38 36 34 37 38 33 32 37 33 35 33 40 57 55 51 47 46 44 45 44 43 45 45 42 46 48 51 43 43 41
37 32 32 37 43 45 42 41 38 36 33 36 39 35 34 32 32 32 34 42 55 60 54 52 43 41 43 49 43 42 45 42 51 48 54 42 39 44
41 42 40 38 37 40 39 38 37 35 37 35 37 33 31 28 25 28 28 30 41 56 54 56 53 43 42 46 44 47 45 50 48 48 45 46 43 41
48 45 43 40 38 36 38 38 36 35 34 36 34 33 30 32 33 28 28 31 34 60 58 54 51 49 46 52 42 44 50 49 53 47 45 42 39 37
43 37 48 45 43 36 37 37 36 35 35 33 36 32 32 32 32 32 29 28 43 49 60 62 49 52 49 56 50 49 49 47 45 39 37 43 38 33
35 52 45 39 37 35 35 37 36 33 35 34 31 33 33 34 32 31 33 33 34 40 60 62 45 55 55 57 54 50 48 44 45 40 40 36 32 32
32 44 42 45 40 40 42 41 36 33 34 33 29 36 33 36 37 35 34 38 40 41 44 63 49 51 53 55 53 44 37 43 43 38 37 33 31 26
33 32 43 45 39 44 39 38 35 34 36 38 36 37 40 41 39 37 38 40 38 37 36 57 45 34 45 50 50 48 38 35 36 36 32 31 24 17
35 40 36 44 44 42 42 39 37 40 38 38 34 34 38 40 42 42 44 36 37 35 33 55 57 46 49 47 38 30 33 35 35 31 30 22 17 20
34 39 36 35 38 45 38 34 38 36 37 34 34 35 39 37 36 35 33 34 35 32 35 41 46 39 39 39 37 35 37 34 32 29 19 16 19 22
36 37 40 40 39 38 33 35 35 36 37 35 35 34 35 32 30 32 31 30 29 29 32 32 35 42 44 42 38 37 36 33 28 17 14 18 21 20
38 34 43 46 45 37 39 35 35 34 33 31 31 32 31 26 29 31 32 29 23 22 21 23 31 39 43 40 36 33 31 23 15 13 18 19 19 19
37 37 39 44 45 42 40 34 28 28 27 27 29 30 26 26 25 22 21 24 22 25 26 29 31 33 32 30 30 26 18 13 13 18 17 17 20 19
37 37 41 42 48 43 39 37 32 29 27 26 25 28 26 27 25 23 24 24 23 25 27 29 30 31 31 28 23 16 14 15 15 14 17 18 19 20
33 36 38 41 45 44 41 41 35 31 31 27 24 25 25 27 27 27 27 27 27 28 30 31 31 28 21 18 15 12 12 13 15 16 16 16 18 19
30 32 36 40 41 38 37 39 40 34 37 32 29 30 31 31 31 32 33 32 32 31 29 28 25 20 16 14 11 13 13 13 15 15 15 16 18 19
29 31 34 37 38 34 34 34 36 39 40 38 37 38 38 35 35 34 34 32 29 28 25 20 17 17 16 15 13 10 11 14 14 14 15 16 18 19
Wind_Direction
243 243 244 244 245 246 250 256 260 268 271 262 249 247 250 255 258 244 233 243 243 239 234 238 239 239 238 238 236 241 249 261 273 283 289 295 304 299
243 244 243 245 247 245 248 253 260 264 268 272 258 242 254 252 260 252 244 242 241 243 238 238 240 240 239 239 241 248 253 263 270 283 287 284 291 300
245 245 247 245 246 244 249 251 260 256 270 270 261 258 250 254 256 260 257 258 233 242 243 240 240 240 239 239 244 248 255 264 269 282 284 280 288 286
247 250 246 243 244 244 244 253 265 260 267 271 265 264 254 270 264 262 250 254 237 243 242 241 241 240 241 241 243 246 256 264 270 272 283 279 284 297
251 250 248 241 242 243 244 251 257 261 266 264 261 260 260 282 268 260 244 245 248 238 241 241 243 241 242 244 245 248 253 255 265 271 274 285 287 290
247 249 251 237 237 243 244 252 254 258 258 252 258 264 266 268 261 256 275 248 239 238 238 241 242 243 244 246 247 252 253 260 265 269 267 281 287 288
245 249 250 241 229 241 244 250 252 256 257 261 261 256 271 277 264 262 278 256 246 240 234 239 238 240 248 245 245 252 254 252 258 267 271 278 284 284
241 236 246 246 239 238 242 248 252 255 258 258 261 259 271 283 277 262 249 258 243 235 231 236 235 236 241 242 248 253 252 250 265 257 268 275 283 292
240 246 244 243 238 238 241 246 250 253 257 260 257 263 268 280 270 265 267 256 271 254 247 231 236 240 245 242 245 252 250 261 260 273 275 284 280 288
236 237 242 241 237 241 243 246 249 253 258 261 257 261 260 265 263 269 269 268 267 245 242 236 232 240 243 243 248 252 256 257 265 268 279 278 285 281
234 240 239 245 253 238 245 245 249 255 259 258 259 256 257 254 264 266 272 266 257 253 244 239 242 237 239 243 252 254 253 260 265 270 276 281 279 272
252 235 240 243 239 229 244 251 253 254 254 261 252 259 256 263 258 265 269 264 265 262 254 237 251 234 245 248 247 261 252 266 256 273 279 275 270 272
256 239 236 241 239 250 244 251 253 249 250 262 258 261 260 259 265 269 273 274 258 267 262 237 251 238 249 248 251 251 260 261 264 268 273 266 267 276
254 249 235 233 234 237 239 243 247 248 254 256 253 256 257 261 263 268 272 270 261 257 250 235 249 262 248 248 249 246 261 258 261 266 261 265 272 281
253 246 241 232 237 231 228 232 245 247 250 254 253 256 262 262 264 265 267 261 253 252 243 235 247 255 247 238 248 249 249 255 261 256 259 267 273 272
257 248 238 240 235 226 235 242 247 247 250 250 255 257 258 265 265 263 252 259 248 250 241 240 244 237 224 240 251 250 250 256 252 252 260 267 269 270
247 243 236 240 243 235 236 243 248 245 249 249 252 255 259 264 257 254 247 248 249 243 237 245 232 221 229 241 247 252 249 247 248 254 265 265 262 268
241 241 235 237 240 238 246 243 243 246 249 246 249 253 258 257 257 244 240 251 222 220 237 237 229 228 241 248 247 246 245 243 250 261 256 257 266 274
238 239 233 235 235 245 237 237 232 239 239 243 245 250 246 249 244 238 228 206 233 238 236 238 236 236 236 237 237 234 238 244 246 247 257 268 273 277
238 237 236 235 237 236 233 237 231 231 236 247 244 237 236 238 232 223 226 231 232 230 227 226 225 225 226 226 226 224 217 235 244 254 262 266 275 281
241 236 237 235 241 236 234 230 223 226 227 229 238 221 223 219 219 220 224 223 220 219 222 224 223 220 212 205 211 222 225 234 249 258 264 271 277 283
241 236 234 236 238 230 228 229 225 219 223 221 221 218 216 215 217 221 224 223 222 221 216 211 204 195 200 208 202 214 233 248 257 264 271 277 283 286
233 233 231 235 235 233 228 227 229 220 215 211 210 215 215 213 211 211 214 212 208 204 198 196 199 203 196 200 213 226 246 254 262 273 279 282 286 288
Height
3062 3065 3069 3073 3076 3080 3082 3083 3084 3084 3086 3090 3091 3094 3096 3097 3097 3098 3103 3105 3109 3113 3115 3118 3121 3123 3125 3127 3129 3130 3132 3133 3133 3132 3131 3130 3128 3126
3053 3056 3060 3063 3067 3071 3072 3075 3076 3077 3077 3080 3083 3085 3087 3089 3090 3091 3092 3096 3100 3104 3107 3110 3114 3116 3118 3121 3122 3124 3126 3126 3126 3125 3124 3123 3122 3120
3044 3047 3050 3055 3058 3062 3064 3066 3067 3069 3069 3068 3073 3076 3078 3080 3081 3081 3083 3086 3089 3094 3098 3101 3105 3108 3110 3112 3115 3117 3118 3119 3118 3118 3117 3116 3114 3113
3035 3037 3041 3045 3049 3052 3055 3057 3059 3060 3061 3060 3062 3066 3068 3068 3069 3070 3073 3075 3079 3084 3088 3092 3096 3099 3101 3104 3106 3109 3111 3111 3111 3110 3109 3107 3106 3103
3024 3027 3031 3034 3039 3042 3045 3048 3051 3052 3053 3051 3053 3055 3056 3056 3059 3061 3062 3065 3068 3073 3077 3081 3086 3089 3092 3094 3097 3100 3102 3103 3102 3102 3099 3098 3096 3094
3015 3016 3018 3021 3028 3032 3035 3039 3041 3043 3044 3044 3045 3046 3047 3050 3050 3050 3052 3054 3057 3061 3066 3070 3076 3079 3081 3084 3088 3091 3092 3093 3093 3092 3090 3089 3087 3085
3007 3009 3009 3012 3018 3022 3025 3029 3031 3032 3032 3034 3035 3036 3037 3039 3040 3041 3040 3044 3046 3049 3054 3059 3064 3068 3070 3075 3078 3080 3082 3082 3083 3082 3080 3080 3078 3075
2997 2998 3001 3004 3007 3011 3015 3018 3020 3021 3021 3023 3025 3027 3030 3030 3028 3029 3030 3032 3035 3039 3044 3047 3052 3056 3059 3064 3068 3070 3072 3072 3073 3071 3071 3070 3068 3065
2985 2988 2991 2994 2997 3000 3004 3007 3009 3011 3012 3015 3017 3019 3021 3023 3022 3021 3019 3022 3023 3027 3032 3036 3042 3046 3049 3052 3056 3059 3061 3061 3061 3062 3061 3059 3057 3055
2975 2978 2980 2982 2987 2991 2994 2997 3000 3002 3003 3005 3008 3012 3013 3014 3014 3014 3014 3013 3014 3018 3022 3025 3032 3037 3040 3041 3045 3048 3050 3051 3052 3052 3051 3049 3047 3045
2965 2965 2970 2975 2974 2980 2985 2988 2990 2992 2994 2995 2998 3001 3003 3004 3004 3003 3004 3005 3007 3009 3012 3015 3019 3025 3028 3031 3034 3037 3040 3041 3041 3042 3040 3039 3036 3035
2953 2956 2960 2965 2968 2969 2976 2978 2980 2984 2984 2986 2987 2989 2992 2993 2994 2995 2995 2996 2996 2996 3001 3005 3010 3014 3016 3020 3023 3026 3029 3030 3031 3030 3030 3028 3027 3026
2942 2944 2950 2955 2958 2962 2964 2967 2971 2972 2973 2976 2978 2979 2981 2983 2984 2985 2986 2986 2985 2986 2991 2995 3000 3003 3006 3011 3013 3016 3019 3020 3021 3020 3020 3019 3018 3017
2933 2934 2937 2941 2945 2950 2953 2955 2958 2960 2963 2966 2968 2970 2971 2973 2974 2975 2975 2975 2976 2977 2978 2985 2989 2993 2996 3000 3003 3007 3009 3010 3011 3010 3010 3010 3009 3010
2923 2924 2926 2930 2934 2938 2942 2944 2947 2949 2953 2955 2958 2960 2963 2963 2963 2964 2964 2964 2965 2966 2969 2975 2980 2984 2989 2992 2996 2997 2999 3000 3001 3001 3002 3001 3002 3004
2913 2914 2916 2920 2922 2924 2926 2936 2937 2939 2943 2946 2948 2950 2952 2952 2952 2952 2953 2955 2955 2957 2961 2964 2969 2975 2980 2984 2986 2988 2990 2992 2992 2992 2992 2994 2997 2997
2902 2904 2907 2910 2914 2917 2921 2924 2927 2930 2933 2935 2937 2939 2942 2941 2942 2942 2943 2945 2946 2948 2954 2957 2961 2966 2971 2974 2977 2980 2981 2982 2984 2984 2986 2988 2990 2989
2892 2894 2897 2901 2903 2906 2910 2914 2917 2920 2923 2925 2927 2930 2931 2932 2933 2933 2936 2938 2940 2945 2948 2951 2955 2960 2964 2967 2970 2972 2974 2975 2976 2978 2981 2982 2982 2982
2880 2882 2885 2889 2892 2896 2901 2903 2907 2910 2913 2916 2918 2921 2922 2924 2926 2928 2930 2933 2937 2941 2943 2947 2951 2954 2957 2959 2964 2964 2966 2968 2971 2974 2975 2976 2976 2976
2866 2869 2874 2878 2882 2885 2888 2892 2897 2901 2903 2906 2909 2913 2914 2917 2919 2922 2926 2929 2931 2935 2938 2941 2944 2946 2949 2952 2955 2958 2960 2964 2967 2968 2969 2969 2968 2967
2855 2858 2862 2866 2870 2873 2877 2882 2887 2891 2894 2897 2900 2904 2907 2909 2913 2916 2920 2923 2925 2928 2932 2934 2937 2940 2943 2946 2950 2953 2957 2960 2962 2962 2963 2962 2961 2960
2846 2850 2853 2856 2859 2862 2866 2870 2874 2879 2884 2888 2892 2896 2899 2901 2905 2909 2913 2916 2918 2922 2925 2928 2930 2934 2939 2943 2946 2949 2952 2954 2955 2956 2956 2956 2955 2953
2838 2841 2844 2847 2849 2853 2856 2861 2866 2869 2874 2878 2882 2886 2890 2893 2897 2901 2905 2908 2912 2915 2919 2923 2928 2931 2934 2938 2942 2944 2947 2949 2950 2950 2950 2949 2948 2946